Regional Weather Roundup
Issued by NWS Burlington, VT

Current Version | Previous Version | Text Only | Print | Product List | Glossary On
Versions: 1 2 3 4 5 6 7 8 9 10 11 12 13 14 15 16 17 18 19 20 21 22 23 24 25 26 27 28 29 30 31 32 33 34 35 36 37 38 39 40 41 42 43 44 45 46 47 48 49 50
000
ASUS41 KBTV 221210
RWRBTV
VERMONT REGIONAL WEATHER ROUNDUP
NATIONAL WEATHER SERVICE BURLINGTON VT
800 AM EDT MON SEP 22 2014

NOTE: "FAIR" INDICATES FEW OR NO CLOUDS BELOW 12,000 FEET WITH NO
SIGNIFICANT WEATHER AND/OR OBSTRUCTIONS TO VISIBILITY.

* THESE REPORTS ARE NOT UNDER NWS QUALITY CONTROL AND/OR DO NOT
  REPORT WEATHER SUCH AS PRECIPITATION AND FOG.

VTZ001>019-221300-
_____VERMONT_____


CITY           SKY/WX    TMP DP  RH WIND       PRES   REMARKS
BURLINGTON     PTSUNNY   55  44  66 W12G17    29.71R
6HR MIN TEMP:  54; 6HR MAX TEMP:  63; 6HR PCP:  0.01;

MONTPELIER     MOSUNNY   52  50  93 NW14G22   29.67R
6HR MIN TEMP:  52; 6HR MAX TEMP:  61; 6HR PCP:  0.01;

MORRISVILLE    CLOUDY    53  47  79 VRB7      29.68R
6HR MIN TEMP:  53; 6HR MAX TEMP:  62; 6HR PCP:  0.08;

ST. JOHNSBURY*   N/A     57  52  83 MISG      29.59R
6HR MIN TEMP:  56; 6HR MAX TEMP:  60; 6HR PCP:  0.01;

MIDDLEBURY*    CLOUDY    56  47  74 W9        29.69R
6HR MIN TEMP:  56; 6HR MAX TEMP:  60;

RUTLAND*       CLOUDY    57  52  82 W13       29.68R
6HR MIN TEMP:  57; 6HR MAX TEMP:  61;

SPRINGFIELD    MOSUNNY   58  54  86 CALM      29.66R
6HR MIN TEMP:  54; 6HR MAX TEMP:  65; 6HR PCP:  0.01;

HIGHGATE*      CLOUDY    50  44  80 W10G20    29.69R
6HR MIN TEMP:  50; 6HR MAX TEMP:  61;

NEWPORT*       PTSUNNY  N/A N/A N/A W22G29    29.63R
BENNINGTON     MOSUNNY   57  51  80 W10G17    29.73R
6HR MIN TEMP:  54; 6HR MAX TEMP:  62; 6HR PCP: TRACE;

SUTTON*          N/A     50 N/A N/A MISG        N/A

_____LAKE CHAMPLAIN_____


CITY           SKY/WX    TMP DP  RH WIND       PRES   REMARKS
COLCHESTER RF*   N/A     54  45  71 W25         N/A

$$

NYZ007-026>031-035-052-083-221300-
_____NORTHERN NEW YORK_____


CITY           SKY/WX    TMP DP  RH WIND       PRES   REMARKS
PLATTSBURGH    CLOUDY    51  43  74 W8G20     29.70R
6HR MIN TEMP:  51; 6HR MAX TEMP:  63; 6HR PCP: TRACE;

SARANAC LAKE   CLOUDY    43  41  93 W9G20     29.74R FOG
6HR MIN TEMP:  43; 6HR MAX TEMP:  58; 6HR PCP: TRACE;

MASSENA        CLOUDY    48  45  89 W13G22    29.78R
6HR MIN TEMP:  48; 6HR MAX TEMP:  52; 6HR PCP:  0.02;

OGDENSBURG*    CLOUDY    48  45  87 W8        29.82R
POTSDAM*       CLOUDY    46  46 100 W10       29.80R
WATERTOWN      CLOUDY    51  40  65 NW15G23   29.87R
6HR MIN TEMP:  50; 6HR MAX TEMP:  53; 6HR PCP: TRACE;

FT DRUM        DRIZZLE   46  46 100 W6        29.85R
6HR MIN TEMP:  46; 6HR MAX TEMP:  50; 6HR PCP:  0.02;

ALBANY         MOSUNNY   58  47  66 W20G29    29.77R
6HR MIN TEMP:  57; 6HR MAX TEMP:  62;

GLENS FALLS    SUNNY     59  46  62 W10G26    29.71R
6HR MIN TEMP:  54; 6HR MAX TEMP:  60;


$$
NHZ002-005-011-221300-
_____NEW HAMPSHIRE_____


CITY           SKY/WX    TMP DP  RH WIND       PRES   REMARKS
LEBANON        MOSUNNY   62  52  69 S8        29.63R
6HR MIN TEMP:  58; 6HR MAX TEMP:  66; 6HR PCP: TRACE;

KEENE          MOSUNNY   61  46  59 SW5       29.68R
6HR MIN TEMP:  55; 6HR MAX TEMP:  66;

MT WASHINGTON  FOG       41  41 100 W66         N/A  VSB 0
6HR MIN TEMP:  40; 6HR MAX TEMP:  50; 6HR PCP:  0.12;

PLYMOUTH       FAIR      62  57  83 W10       29.61R
6HR MIN TEMP:  60; 6HR MAX TEMP:  65;

WHITEFIELD     CLOUDY    59  54  83 S10G16    29.60R
6HR MIN TEMP:  57; 6HR MAX TEMP:  63; 6HR PCP:  0.03;


$$

_____REGIONAL QUEBEC LOCATIONS_____


CITY           SKY/WX    TMP DP  RH WIND       PRES   REMARKS
MONTREAL       CLOUDY    50  45  81 W22       29.67R
QUEBEC CITY    DRIZZLE   57  55  94 SW20G30   29.44R FOG
SHERBROOKE     CLOUDY    52  48  87 W10       29.59R

_____REGIONAL ONTARIO LOCATIONS_____


CITY           SKY/WX    TMP DP  RH WIND       PRES   REMARKS
OTTAWA         PTSUNNY   46  41  81 W18G28    29.79R

______KEY______
VSB  - VISIBILITY IN MILES
WCI  - WIND CHILL INDEX
HX   - HEAT INDEX
$$
NNNN


USA.gov is the U.S. government's official web portal to all federal, state and local government web resources and services.